Moffett Field, CA

12:19 AM PST on February 08, 2016 (GMT -0800)
Moffett Federal Air Field

Weather History for KNUQ - October, 2011

Change the Weather History Date:

Sunday, October 30, 2011

  Actual Average Record
Temperature  
Mean Temperature 66 °F 61 °F  
Max Temperature 80 °F 70 °F 83 °F (1967)
Min Temperature 52 °F 51 °F 33 °F (1946)
Degree Days  
Heating Degree Days 0    
Month to date heating degree days 23  
Since 1 July heating degree days 33  
Cooling Degree Days 1    
Month to date cooling degree days 70  
Year to date cooling degree days 453  
Growing Degree Days 16 (Base 50)    
Moisture  
Dew Point 48 °F    
Average Humidity 57    
Maximum Humidity 78    
Minimum Humidity 35    
Precipitation  
Precipitation 0.00 in 0.04 in 0.62 in (2000)
Month to date precipitation 1.00 0.60  
Year to date precipitation 10.50 10.44  
Since 1 July precipitation 1.00  
Sea Level Pressure  
Sea Level Pressure 30.09 in    
Wind  
Wind Speed 2 mph (NNW)    
Max Wind Speed 13 mph    
Max Gust Speed 15 mph    
Visibility 10 miles    
Events      
T = Trace of Precipitation, MM = Missing Value Source: NWS Daily Summary

Daily Weather History Graph

Daily Weather History Graph

Search for Another Location

Airport or City:

Trip Planner

Search our weather history database for the weather conditions in past years. The results will help you decide how hot, cold, wet, or windy it might be!

Date:

Astronomy

Oct. 30, 2011 Rise Set
Actual Time 7:30 AM PDT 6:12 PM PDT
Civil Twilight 7:03 AM PDT 6:39 PM PDT
Nautical Twilight 6:33 AM PDT 7:10 PM PDT
Astronomical Twilight 6:02 AM PDT 7:40 PM PDT
Moon 11:51 AM PDT (10/30) 9:50 PM PDT (10/30)
Length of Visible Light 11h 35m
Length of Day
10h 41m
Waxing Crescent, 21% of the Moon is Illuminated
Oct 30
Waxing Crescent
Nov 2
First Quarter
Nov 10
Full
Nov 18
Last Quarter
Nov 24
New

Hourly Weather History & Observations

Time (PDT) Temp. Dew Point Humidity Pressure Visibility Wind Dir Wind Speed Gust Speed Precip Events Conditions
12:56 AM 60.1 °F 42.1 °F 51% 30.09 in 10.0 mi Calm Calm - N/A   Clear
1:56 AM 57.0 °F 42.1 °F 57% 30.09 in 10.0 mi Calm Calm - N/A   Clear
2:56 AM 57.0 °F 43.0 °F 59% 30.09 in 10.0 mi Calm Calm - N/A   Clear
3:56 AM 55.9 °F 43.0 °F 62% 30.09 in 10.0 mi Calm Calm - N/A   Clear
4:56 AM 55.0 °F 42.1 °F 62% 30.09 in 10.0 mi Calm Calm - N/A   Clear
5:56 AM 55.0 °F 43.0 °F 64% 30.10 in 10.0 mi Calm Calm - N/A   Clear
7:56 AM 53.1 °F 44.1 °F 71% 30.12 in 10.0 mi Calm Calm - N/A   Clear
8:56 AM 60.1 °F 46.9 °F 62% 30.13 in 10.0 mi Calm Calm - N/A   Clear
9:56 AM 66.0 °F 48.9 °F 54% 30.13 in 10.0 mi Calm Calm - N/A   Clear
10:56 AM 69.1 °F 50.0 °F 51% 30.13 in 10.0 mi Calm Calm - N/A   Clear
11:56 AM 72.0 °F 46.0 °F 40% 30.12 in 10.0 mi North 4.6 mph - N/A   Clear
12:56 PM 75.0 °F 46.9 °F 37% 30.09 in 10.0 mi NNW 5.8 mph - N/A   Clear
1:56 PM 80.1 °F 52.0 °F 38% 30.07 in 10.0 mi NNW 6.9 mph - N/A   Clear
2:56 PM 79.0 °F 48.9 °F 35% 30.06 in 10.0 mi NNW 11.5 mph - N/A   Clear
3:56 PM 79.0 °F 48.0 °F 34% 30.05 in 10.0 mi NNW 10.4 mph - N/A   Clear
4:56 PM 78.1 °F 50.0 °F 37% 30.04 in 10.0 mi NNW 5.8 mph - N/A   Clear
5:56 PM 71.1 °F 55.0 °F 57% 30.05 in 10.0 mi North 4.6 mph - N/A   Clear
6:56 PM 69.1 °F 52.0 °F 54% 30.06 in 10.0 mi NW 3.5 mph - N/A   Clear
7:56 PM 69.1 °F 51.1 °F 53% 30.07 in 10.0 mi WNW 3.5 mph - N/A   Clear
8:56 PM 66.9 °F 53.1 °F 61% 30.07 in 10.0 mi Calm Calm - N/A   Clear
9:56 PM 63.0 °F 53.1 °F 70% 30.09 in 10.0 mi Calm Calm - N/A   Clear
10:56 PM 63.0 °F 54.0 °F 72% 30.09 in 10.0 mi Calm Calm - N/A   Clear
11:56 PM 61.0 °F 53.1 °F 75% 30.09 in 10.0 mi Calm Calm - N/A   Clear